Torna al catalogo

CZ-6A DEB

AttivoPO
NORAD 61277·DEBRIS·🇨🇳 China

Lanciato Aug 6, 2024 da Taiyuan Satellite Launch Center

Loading…

Prossimi Passaggi (prossime 24 ore)

TLE

AggiornatoSource: Space-Track

Epoca: Sep 14, 2026, 19:54 UTC

1 61277U 24140SN  26257.82968192  .00004697  00000-0  12530-2 0  9990
2 61277  88.4342 208.3737 0089398  60.2258 300.7800 14.45908760107992

Traccia CZ-6A DEB in tempo reale con AllMySat

Download on the App Store